Location: Kruen
(47.5000°N, 11.5000°E)
Time: 22:51:35
(UTC+01:00)

ISS - Pass Details

Date: 28 September 2020
Orbit: 417 x 420 km, 51.6° (Epoch: 27 October)

Event Time Altitude Azimuth Distance (km) Brightness Sun altitude
Rises 20:15:24 0° 287° (WNW) 2,367 2.0 -13.7°
Reaches altitude 10° 20:17:34 10° 295° (WNW) 1,502 0.4 -14.1°
Maximum altitude 20:20:48 41° 7° (N) 622 -2.9 -14.6°
Enters shadow 20:22:19 25° 63° (ENE) 898 -2.5 -14.8°
